Temperature
17 16 16 16 16 16 16 16 16 16 16 16 16 16 16 16 16 16 17 17 17 17 17 17 17 17 17 17 16 17 16 16 16 16 16 16 16 16 16 16 16 16 16
16 16 16 16 16 16 16 15 16 15 16 16 16 16 16 16 16 16 16 16 17 17 17 17 17 17 16 16 16 17 17 17 16 16 16 16 16 16 16 16 16 16 16
16 16 15 15 15 15 15 15 15 15 15 16 15 15 16 15 16 16 16 16 16 16 17 16 17 16 16 16 16 16 16 16 16 16 16 16 16 16 16 16 16 16 16
15 15 15 15 15 15 15 15 15 15 15 15 15 15 15 15 15 15 16 16 16 16 16 16 16 16 16 16 16 16 16 16 16 16 16 16 16 16 16 16 16 16 16
15 15 14 14 14 14 14 15 15 15 15 15 15 15 15 15 15 15 15 15 16 16 16 16 16 16 16 16 16 16 16 16 16 16 16 16 16 16 16 16 16 16 16
15 14 14 14 14 14 14 14 14 14 14 14 15 15 15 15 15 15 15 15 15 15 16 16 16 16 16 16 16 16 16 16 16 16 16 16 16 16 16 16 16 16 16
15 14 14 14 14 14 13 14 14 14 14 14 15 15 15 15 15 15 15 15 15 15 15 15 15 15 15 16 16 16 16 16 16 16 16 16 16 16 16 16 16 16 16
14 14 14 14 13 13 13 13 13 14 14 14 15 16 17 16 14 15 14 14 14 15 15 15 15 15 15 15 15 15 15 15 15 16 16 16 16 16 16 16 16 16 16
14 14 14 13 13 13 13 13 13 13 14 14 14 15 17 18 16 15 14 14 14 14 15 15 15 15 15 15 15 15 15 15 15 15 15 15 16 16 16 15 16 16 16
14 14 14 13 13 13 13 13 13 13 13 14 14 14 14 15 16 16 15 14 14 14 14 14 14 14 14 15 15 15 15 15 15 15 15 15 15 15 15 15 15 16 16
14 14 14 13 13 13 13 13 13 13 13 13 14 14 14 14 14 15 16 15 15 14 14 14 14 14 14 14 14 15 15 15 15 15 15 15 15 15 15 15 15 15 15
14 14 14 13 13 13 13 12 12 12 13 13 13 13 14 14 14 15 15 15 15 14 13 13 13 13 13 13 14 14 15 15 15 15 15 15 15 15 15 15 15 15 15
15 14 14 14 13 13 13 12 12 12 12 12 12 13 13 13 13 13 14 15 14 14 13 13 13 13 13 13 13 14 14 14 14 14 15 15 15 15 15 15 15 15 15
15 15 14 14 13 13 13 13 12 12 12 12 12 12 12 12 12 13 13 13 14 15 15 14 13 13 12 12 12 13 13 13 14 14 14 14 14 14 14 14 15 15 15
15 15 15 14 14 13 13 13 13 12 12 12 12 12 12 12 12 12 12 12 13 14 15 14 13 13 12 12 12 12 12 12 13 13 14 14 14 14 14 14 14 14 14
16 15 15 15 14 14 13 13 13 12 12 12 12 12 12 12 12 12 12 12 12 13 13 14 13 13 12 12 12 12 12 12 13 13 13 13 13 13 13 14 14 14 14
16 16 15 15 15 14 14 14 13 13 13 12 12 12 12 12 12 12 12 12 12 12 12 13 13 12 11 11 11 11 11 11 12 12 12 13 13 13 13 13 13 13 14
16 16 16 15 15 14 14 14 14 13 13 13 13 13 12 12 12 12 12 12 12 12 12 12 12 12 11 11 11 11 11 12 12 12 12 12 12 13 13 13 13 13 13
17 16 16 16 16 15 15 15 14 14 14 13 13 13 13 12 12 12 12 12 12 12 11 11 12 12 12 11 11 11 11 11 11 12 12 12 12 12 12 13 13 13 13
17 17 17 16 16 15 15 15 15 14 14 14 14 13 13 13 13 12 12 12 12 12 11 11 12 12 12 11 11 11 11 12 11 12 12 11 11 12 12 12 12 12 12
18 17 17 17 16 16 16 15 15 15 14 14 14 14 14 14 13 13 12 12 12 11 12 12 12 12 12 12 12 12 12 12 11 11 11 11 11 11 12 12 12 12 12
18 17 17 17 16 16 16 16 16 15 14 14 14 14 14 14 14 14 14 13 12 11 11 12 12 12 12 12 11 11 11 12 12 12 11 11 11 11 11 11 11 11 11
17 17 17 16 16 16 16 16 16 15 14 14 14 14 14 14 14 14 14 14 13 13 12 12 11 11 12 11 11 11 11 11 11 11 11 11 11 11 11 11 11 11 11
17 17 17 16 16 16 16 16 15 15 14 14 14 14 14 14 14 13 13 13 13 13 13 12 12 12 11 11 10 10 10 10 10 10 10 10 11 11 11 11 11 11 11
16 16 16 16 16 16 15 15 15 14 14 14 14 13 13 13 14 13 13 12 12 12 12 12 12 12 12 11 11 10 10 10 11 11 11 10 11 11 11 11 11 11 11
15 15 14 14 14 14 14 14 14 13 13 13 13 13 13 13 13 13 13 12 12 12 12 12 11 11 12 11 11 10 10 10 11 11 11 11 11 11 11 11 11 11 10
Wind_Speed
0 0 0 1 2 1 2 2 1 1 2 3 3 3 3 4 4 5 3 7 6 7 10 12 14 15 15 15 15 14 14 14 13 13 12 12 12 11 11 10 9 9 9
2 1 0 0 1 2 1 1 0 1 1 1 2 2 4 4 4 5 5 6 9 8 9 11 12 14 15 16 16 16 16 15 15 15 14 14 13 13 12 11 11 10 10
3 1 1 0 1 1 2 2 1 1 1 1 1 2 3 3 4 4 6 5 7 10 10 11 12 14 15 16 17 17 17 17 17 17 16 16 15 15 14 13 12 12 12
3 1 1 2 1 1 1 1 1 1 0 1 1 1 1 2 3 4 6 6 6 6 10 12 12 13 15 16 17 17 17 18 18 18 18 17 17 17 16 16 15 14 14
2 2 2 3 0 0 0 1 1 2 1 1 1 1 1 1 2 2 3 4 4 6 6 9 11 12 14 16 17 17 17 18 19 19 18 18 19 19 19 18 17 17 16
2 2 2 2 1 1 1 1 1 1 2 2 2 0 0 1 0 1 1 1 1 3 5 6 8 12 13 14 16 17 18 18 19 19 18 18 19 20 21 21 20 19 19
3 2 2 2 1 1 1 0 1 1 1 2 3 2 3 2 2 2 2 1 1 1 0 2 5 6 8 13 14 17 18 19 19 18 18 19 19 21 22 22 22 22 21
3 3 2 1 2 2 1 1 1 2 0 1 3 3 3 5 3 2 2 2 2 2 2 2 1 1 4 6 8 12 13 15 17 18 18 19 19 20 22 23 24 24 23
4 2 2 1 1 0 2 1 1 1 1 0 2 4 3 1 3 4 2 2 2 2 2 2 2 2 1 1 3 5 7 11 13 16 18 19 20 20 21 23 24 25 25
6 5 4 2 1 0 1 1 2 1 2 1 1 1 3 4 3 2 4 3 1 1 2 2 1 2 2 1 2 4 0 4 9 12 14 15 17 19 21 22 23 23 25
7 7 6 4 3 2 1 1 1 1 1 2 1 0 0 1 3 4 2 1 2 1 1 2 2 1 1 1 1 6 5 2 3 6 9 11 14 17 20 21 22 23 23
7 9 8 6 6 4 3 3 2 2 1 1 2 2 2 2 2 3 4 4 3 2 2 2 3 2 2 2 3 7 5 5 4 4 6 8 11 14 18 20 21 22 23
7 9 8 8 7 6 5 4 4 3 3 2 3 2 2 2 3 3 5 5 5 4 3 4 3 3 3 3 1 5 2 4 5 5 5 6 8 10 13 16 18 19 21
6 7 9 9 8 8 7 6 5 5 4 4 4 4 4 4 3 4 5 5 6 5 4 3 3 4 3 5 3 6 5 1 5 6 6 7 8 8 9 11 13 16 18
6 8 9 9 9 9 8 7 7 6 6 6 6 6 6 4 5 5 5 6 6 7 5 3 4 3 4 6 4 8 8 3 5 7 8 8 8 9 10 11 11 12 14
8 9 10 10 10 9 9 9 8 8 8 7 6 6 7 7 5 6 6 6 6 7 8 5 5 6 5 9 6 8 10 8 12 11 10 9 10 11 11 12 13 13 14
10 11 11 11 11 11 11 10 11 9 10 9 9 9 9 9 7 7 7 7 7 8 9 9 8 6 6 9 9 9 11 11 11 13 11 10 11 12 13 13 14 15 16
12 12 12 12 12 12 11 12 12 11 11 11 11 10 10 9 10 9 8 9 9 8 10 11 10 9 9 9 9 10 11 12 12 8 11 12 14 14 15 15 16 16 17
13 12 12 13 12 12 12 13 13 12 12 12 12 12 12 11 11 10 10 10 9 9 10 11 11 9 9 9 9 10 11 10 13 13 13 17 18 18 17 17 18 18 18
13 13 13 13 13 13 13 13 13 13 13 13 13 13 13 13 13 13 11 12 11 11 11 11 12 10 9 9 9 10 10 9 10 11 11 11 14 17 19 19 20 19 19
14 14 14 14 14 14 14 15 14 15 14 14 14 15 15 15 14 13 12 12 12 12 12 12 12 11 10 9 9 9 10 9 10 10 10 11 11 13 15 20 23 22 20
13 13 14 15 15 14 13 14 15 15 14 15 15 15 15 16 17 18 17 16 15 15 14 13 13 13 12 11 10 10 10 11 11 9 9 10 10 11 11 14 13 15 18
12 13 14 15 16 16 14 15 17 17 16 16 16 15 15 15 17 17 19 22 21 22 20 18 17 16 14 12 12 13 12 12 12 10 10 12 12 13 12 14 12 13 16
9 11 12 14 15 15 14 16 16 18 18 18 18 18 18 17 17 17 17 18 19 19 20 20 20 19 17 14 13 13 14 13 14 13 13 14 13 13 13 13 14 18 20
8 9 10 12 13 14 12 14 14 14 16 19 19 19 19 19 18 17 18 19 19 18 18 20 20 19 17 14 12 12 13 13 14 13 12 13 13 13 13 13 14 18 22
6 8 9 10 11 12 9 9 12 12 15 16 16 18 19 21 20 17 19 20 21 20 18 17 18 20 21 20 19 18 17 16 15 15 12 12 13 12 13 12 11 10 14
Wind_Direction
63 100 1 291 257 220 203 221 220 203 223 214 234 231 244 249 257 255 204 171 202 215 215 211 209 207 209 209 207 206 204 201 198 195 193 190 187 186 187 186 184 181 179
62 21 167 267 238 240 255 248 192 205 224 221 242 256 264 259 241 255 251 201 202 218 222 213 211 212 213 213 212 212 212 209 204 201 199 198 196 195 196 196 195 193 190
67 31 54 141 77 168 171 198 177 193 214 218 236 262 261 266 264 255 257 249 219 208 215 214 211 213 214 216 216 216 217 216 212 207 205 204 203 202 202 203 202 201 199
64 25 45 63 62 176 177 167 228 226 276 281 279 295 290 266 267 261 254 245 246 234 208 205 210 212 214 218 218 218 219 220 219 215 212 210 209 208 208 208 207 207 206
72 49 51 53 217 128 151 265 79 305 289 304 262 230 304 301 286 271 268 258 247 246 237 190 201 210 214 218 219 221 220 221 221 220 220 220 217 215 214 213 212 212 211
88 53 86 59 351 111 92 49 45 6 312 291 287 49 346 27 347 30 270 232 241 241 241 231 213 210 211 218 219 221 222 222 222 223 225 225 224 222 220 218 217 216 215
113 61 67 91 8 75 26 348 299 182 283 295 254 212 165 132 86 86 45 36 69 58 125 230 239 231 210 210 216 219 220 222 224 224 228 230 229 228 226 223 221 220 218
153 132 79 105 82 100 98 39 326 308 17 324 291 251 204 172 160 96 92 72 47 60 78 71 69 222 249 223 211 217 222 223 226 227 230 233 233 233 232 228 225 223 222
176 145 145 101 107 227 99 63 345 319 315 85 339 305 283 254 156 153 121 85 59 39 57 60 57 45 297 245 225 201 221 227 229 230 231 232 233 236 237 233 229 227 225
190 182 178 171 204 124 128 180 74 333 298 293 127 14 353 354 296 190 178 153 104 31 21 347 21 66 28 27 74 66 54 241 238 238 236 234 235 237 239 237 234 231 228
198 198 196 193 202 209 161 65 128 316 290 321 318 235 209 235 275 291 263 248 232 226 332 300 320 333 352 356 8 47 27 343 276 255 249 243 239 239 240 240 239 236 233
201 201 204 206 213 213 198 210 214 213 314 335 308 299 282 284 283 284 282 271 278 271 294 293 272 270 289 298 35 29 9 358 321 282 264 252 245 244 242 240 240 241 240
205 199 206 207 215 213 215 217 222 245 228 232 251 265 280 288 295 291 290 290 288 273 248 245 237 264 274 290 323 2 321 352 336 310 282 265 254 249 246 243 241 243 243
217 197 203 209 215 215 217 216 230 224 227 235 242 256 261 256 266 272 283 292 286 273 238 241 258 245 279 286 345 312 272 289 313 305 293 278 265 258 254 251 249 247 245
210 199 206 210 213 215 220 221 234 232 229 237 236 225 243 249 249 259 266 273 284 291 288 236 249 230 263 284 299 288 286 276 291 288 284 280 274 267 259 254 254 253 252
208 204 208 211 214 215 217 224 232 227 233 237 248 255 251 254 248 250 254 257 261 274 283 289 276 278 297 298 269 276 277 266 256 254 262 271 271 268 265 259 255 253 254
206 208 210 213 217 219 219 222 236 231 232 237 237 237 238 253 254 251 246 250 254 258 269 277 277 271 265 275 285 280 274 271 260 224 235 259 267 267 266 263 260 258 256
210 211 213 216 220 222 221 224 231 233 233 236 237 238 240 237 237 249 252 251 253 258 264 275 280 277 263 261 265 270 273 270 273 236 226 248 258 261 262 263 262 261 260
213 215 215 219 223 225 225 227 231 235 237 238 239 239 239 240 239 241 242 249 251 249 250 264 271 273 271 264 266 264 265 264 269 260 233 235 243 249 255 257 258 259 258
213 216 218 222 225 227 229 230 231 234 238 240 241 242 242 239 239 241 241 244 250 256 254 257 265 267 263 259 258 265 268 255 257 267 267 259 244 239 244 248 250 251 252
217 219 221 224 227 230 231 230 232 234 236 240 240 241 241 240 240 240 245 244 242 246 253 255 259 263 262 260 261 264 269 273 265 262 266 264 255 248 240 235 236 239 242
223 224 226 229 231 234 225 221 232 241 240 240 243 242 242 235 233 229 239 248 252 249 252 257 260 261 263 263 262 266 271 271 271 264 262 266 266 266 262 259 243 223 230
226 230 234 236 239 240 228 218 221 239 247 246 245 245 246 243 231 235 229 229 238 242 246 251 258 261 263 257 259 259 256 263 271 279 276 272 269 266 263 260 237 226 236
235 236 240 242 245 245 226 220 220 235 248 250 248 246 246 249 243 238 240 238 237 236 232 235 245 253 256 260 255 254 265 265 263 258 256 265 269 268 267 264 241 225 235
249 249 248 250 251 253 234 223 222 245 247 249 250 249 248 249 244 233 240 245 247 247 240 231 234 242 249 252 251 252 253 255 260 259 247 252 262 268 269 266 256 226 227
268 267 264 263 264 266 255 229 222 250 256 258 255 251 246 242 246 228 237 244 247 248 250 242 229 237 244 243 233 237 245 250 257 261 255 251 259 265 270 266 261 252 238
Height
1571 1571 1571 1570 1572 1572 1572 1572 1572 1572 1572 1573 1574 1574 1575 1575 1576 1577 1578 1577 1578 1580 1581 1583 1584 1585 1587 1588 1590 1591 1593 1594 1596 1597 1598 1599 1600 1601 1602 1604 1604 1605 1606
1570 1570 1570 1570 1571 1571 1571 1571 1572 1571 1572 1572 1573 1573 1573 1574 1574 1574 1576 1576 1576 1578 1579 1581 1582 1583 1585 1586 1588 1590 1591 1593 1594 1596 1597 1598 1600 1601 1602 1603 1604 1605 1606
1569 1569 1570 1570 1570 1570 1570 1570 1571 1571 1571 1572 1572 1572 1572 1572 1572 1572 1573 1574 1575 1576 1577 1578 1580 1581 1583 1584 1586 1587 1589 1591 1592 1594 1596 1597 1599 1600 1601 1603 1604 1605 1606
1569 1569 1569 1569 1569 1570 1570 1570 1571 1571 1571 1571 1571 1571 1571 1570 1570 1571 1572 1572 1573 1574 1575 1576 1577 1578 1580 1581 1583 1585 1587 1588 1590 1592 1594 1595 1597 1599 1600 1601 1603 1604 1605
1568 1569 1569 1568 1568 1569 1570 1570 1570 1570 1571 1571 1571 1570 1570 1570 1569 1570 1570 1571 1571 1572 1573 1573 1574 1576 1577 1578 1580 1582 1584 1586 1588 1589 1591 1593 1595 1596 1598 1600 1601 1602 1604
1568 1568 1568 1567 1569 1569 1569 1569 1569 1569 1569 1569 1570 1570 1569 1569 1569 1569 1569 1570 1569 1570 1571 1572 1572 1573 1574 1575 1577 1578 1580 1582 1584 1586 1588 1590 1592 1594 1595 1597 1599 1600 1602
1567 1567 1568 1567 1568 1568 1568 1569 1569 1569 1569 1569 1570 1569 1569 1569 1568 1568 1569 1569 1569 1569 1569 1569 1570 1571 1572 1572 1573 1575 1577 1578 1580 1582 1584 1586 1588 1590 1592 1594 1596 1597 1599
1567 1568 1567 1568 1568 1567 1567 1567 1567 1569 1569 1568 1569 1569 1569 1569 1568 1568 1568 1568 1568 1569 1569 1569 1569 1569 1570 1570 1571 1572 1573 1574 1576 1578 1580 1582 1584 1586 1588 1590 1592 1594 1596
1567 1567 1567 1568 1567 1568 1568 1567 1567 1567 1568 1568 1567 1569 1568 1566 1568 1568 1568 1567 1567 1568 1568 1568 1568 1567 1568 1568 1569 1569 1570 1571 1572 1574 1576 1577 1579 1581 1583 1586 1588 1589 1591
1566 1566 1567 1567 1567 1568 1567 1567 1566 1566 1566 1568 1567 1566 1567 1567 1567 1567 1568 1567 1567 1567 1567 1567 1567 1567 1567 1567 1567 1566 1567 1568 1569 1570 1572 1573 1574 1576 1578 1580 1583 1585 1586
1565 1565 1566 1566 1566 1567 1566 1565 1565 1565 1566 1567 1567 1567 1567 1566 1567 1567 1567 1567 1567 1567 1566 1565 1565 1565 1565 1565 1565 1564 1565 1565 1566 1567 1568 1569 1570 1571 1573 1575 1577 1579 1581
1563 1564 1564 1565 1565 1566 1565 1565 1565 1565 1565 1564 1565 1566 1566 1567 1566 1566 1566 1566 1566 1565 1564 1563 1564 1564 1563 1563 1562 1562 1562 1563 1563 1563 1564 1565 1565 1566 1568 1569 1571 1573 1575
1562 1562 1563 1563 1564 1564 1564 1564 1563 1564 1564 1563 1563 1564 1565 1565 1565 1565 1565 1564 1564 1563 1562 1562 1561 1561 1561 1561 1560 1558 1559 1559 1559 1560 1560 1561 1561 1562 1563 1564 1565 1567 1568
1561 1560 1560 1561 1561 1562 1562 1562 1563 1563 1562 1562 1562 1562 1562 1563 1563 1563 1563 1563 1562 1561 1560 1560 1560 1559 1558 1558 1556 1555 1556 1555 1555 1556 1556 1556 1557 1558 1558 1559 1560 1561 1562
1557 1557 1557 1558 1559 1559 1560 1560 1561 1561 1560 1560 1561 1560 1560 1561 1560 1560 1561 1561 1561 1559 1558 1558 1558 1557 1555 1555 1553 1552 1552 1551 1551 1551 1551 1552 1552 1553 1553 1554 1554 1555 1556
1554 1554 1555 1556 1556 1557 1557 1558 1558 1558 1558 1558 1558 1558 1557 1558 1558 1558 1558 1558 1558 1558 1556 1556 1555 1555 1552 1551 1550 1548 1547 1546 1546 1546 1546 1547 1547 1547 1548 1548 1549 1550 1551
1551 1551 1552 1553 1553 1554 1554 1555 1555 1556 1555 1556 1555 1555 1554 1554 1555 1555 1555 1555 1554 1554 1553 1552 1552 1550 1547 1546 1546 1545 1544 1543 1543 1541 1541 1541 1541 1542 1542 1542 1543 1544 1544
1547 1548 1548 1549 1550 1550 1551 1551 1552 1552 1552 1552 1552 1552 1551 1551 1550 1551 1551 1551 1550 1550 1549 1548 1547 1546 1545 1542 1541 1539 1540 1540 1539 1537 1535 1535 1535 1535 1536 1536 1536 1537 1537
1543 1544 1545 1545 1546 1547 1547 1547 1548 1548 1548 1548 1548 1548 1547 1547 1546 1547 1546 1546 1546 1546 1544 1543 1542 1542 1540 1539 1537 1536 1535 1533 1533 1533 1531 1529 1529 1529 1529 1529 1529 1530 1530
1538 1539 1540 1541 1542 1542 1543 1543 1543 1543 1544 1543 1543 1543 1542 1542 1542 1541 1541 1541 1541 1541 1540 1538 1537 1537 1536 1534 1533 1532 1531 1530 1528 1528 1527 1525 1523 1522 1522 1522 1522 1522 1522
1534 1535 1535 1536 1537 1537 1538 1538 1538 1538 1538 1538 1538 1537 1537 1536 1536 1536 1536 1536 1536 1535 1535 1534 1532 1532 1531 1530 1529 1528 1527 1525 1524 1523 1521 1520 1519 1518 1517 1515 1515 1515 1515
1529 1530 1530 1531 1531 1532 1532 1532 1533 1533 1532 1532 1531 1531 1530 1529 1529 1529 1528 1529 1529 1528 1528 1528 1527 1526 1525 1524 1523 1522 1522 1520 1519 1519 1517 1515 1514 1512 1511 1511 1510 1508 1508
1523 1524 1525 1525 1525 1525 1526 1526 1526 1526 1525 1524 1524 1523 1523 1523 1522 1521 1520 1520 1520 1519 1519 1519 1519 1518 1518 1518 1517 1516 1515 1514 1513 1513 1511 1509 1508 1506 1505 1504 1503 1501 1500
1517 1517 1518 1518 1518 1518 1518 1519 1519 1518 1517 1516 1515 1515 1514 1514 1514 1514 1513 1512 1511 1510 1510 1509 1509 1509 1510 1510 1509 1509 1508 1507 1505 1504 1504 1502 1501 1500 1498 1497 1495 1493 1492
1510 1510 1510 1510 1510 1510 1510 1510 1510 1508 1507 1506 1506 1506 1505 1505 1505 1505 1504 1503 1502 1502 1501 1500 1500 1500 1500 1501 1501 1502 1501 1501 1499 1498 1498 1496 1494 1493 1492 1490 1488 1486 1484
1504 1504 1504 1503 1502 1502 1502 1501 1501 1500 1498 1498 1497 1496 1495 1495 1495 1495 1494 1493 1492 1492 1493 1493 1491 1490 1490 1490 1491 1491 1492 1492 1491 1490 1490 1489 1488 1487 1485 1483 1482 1481 1478